Tracking 19575 objects as of 19-Feb-2019
HD Live streaming from Space Station
objects crossing your sky now

COSMOS 1823 DEB

Track COSMOS 1823 DEB now!
10-day predictions


NORAD ID: 29359
Int'l Code: 1987-020EA
Perigee: 1,486.5 km
Apogee: 1,531.8 km
Inclination: 73.6 °
Period: 116.0 minutes
Semi major axis: 7880 km
RCS: 0.0053 m2 (small)
Launch date: February 20, 1987
Source: Commonwealth of Independent States (former USSR) (CIS)
Launch site: PLESETSK MISSILE AND SPACE COMPLEX (PKMTR)

Note: This is SATELLITE DEBRIS
aabbcc
Your satellite tracking list
Your tracking list is empty




NASA's NSSDC Master Catalog

Two Line Element Set (TLE):
1 29359U 87020EA  19043.41252699 -.00000002 +00000-0 +10935-3 0  9994
2 29359 073.6153 058.2761 0028736 116.2754 310.9859 12.41090597196140
Source of the keplerian elements: AFSPC